GW0756 Weather Reports


Display with metric or nautical units.
time (UTC)temp
F
wind
direction
speed
MPH
gust
MPH
rain 1hr
in
rain 24hr
in
rain mn
in
humidity
%
barometer
mb
20260505025045 72 250 2.0 2.0 0.00 0.00 0.00 65 1005.7
20260505024541 72 250 1.0 2.0 0.00 0.00 0.00 64 1005.5
20260505024038 72 250 2.0 3.0 0.00 0.00 0.00 65 1005.6
20260505023535 73 250 3.0 3.0 0.00 0.00 0.00 65 1005.3
20260505023033 73 250 4.0 6.0 0.00 0.00 0.00 64 1005.0
20260505022531 73 250 1.0 2.0 0.00 0.00 0.00 65 1005.0
20260505022028 73 250 2.0 3.0 0.00 0.00 0.00 64 1005.4
20260505021524 73 250 4.0 5.0 0.00 0.00 0.00 64 1005.0
20260505021021 73 250 5.0 8.0 0.00 0.00 0.00 64 1004.9
20260505020520 74 250 2.0 2.0 0.00 0.00 0.00 64 1004.8
20260505020018 74 250 4.0 5.0 0.00 0.00 0.00 64 1004.8
20260505015515 74 250 7.0 10.0 0.00 0.00 0.00 64 1004.6
20260505015012 74 250 2.0 3.0 0.00 0.00 0.00 64 1004.6
20260505014509 74 250 1.0 1.0 0.00 0.00 0.00 64 1004.4
20260505014006 74 250 3.0 5.0 0.00 0.00 0.00 64 1004.4
20260505013503 75 250 0.0 1.0 0.00 0.00 0.00 63 1004.3
20260505013000 75 250 2.0 2.0 0.00 0.00 0.00 63 1004.1
20260505012458 75 250 1.0 2.0 0.00 0.00 0.00 63 1004.1
20260505011955 75 250 2.0 2.0 0.00 0.00 0.00 63 1004.0
20260505011451 76 250 4.0 6.0 0.00 0.00 0.00 63 1003.9
20260505010948 76 250 2.0 2.0 0.00 0.00 0.00 62 1004.0
20260505010443 76 250 3.0 6.0 0.00 0.00 0.00 62 1003.5
20260505005939 76 250 2.0 3.0 0.00 0.00 0.00 62 1003.6
20260505005436 77 250 2.0 2.0 0.00 0.00 0.00 61 1003.8
20260505004934 77 250 2.0 3.0 0.00 0.00 0.00 61 1003.3
20260505004431 77 250 4.0 7.0 0.00 0.00 0.00 60 1003.4
20260505003928 77 250 3.0 3.0 0.00 0.00 0.00 60 1003.4
20260505003425 77 250 3.0 3.0 0.00 0.00 0.00 60 1003.5
20260505002921 77 250 2.0 3.0 0.00 0.00 0.00 60 1003.3
20260505002417 78 250 3.0 3.0 0.00 0.00 0.00 59 1003.6
20260505001916 78 250 3.0 5.0 0.00 0.00 0.00 59 1003.6
20260505001413 78 250 0.0 1.0 0.00 0.00 0.00 58 1003.7
20260505000910 78 250 5.0 7.0 0.00 0.00 0.00 58 1003.6
20260505000408 78 250 1.0 1.0 0.00 0.00 0.00 58 1003.6
20260504235904 78 250 4.0 5.0 0.00 0.00 0.00 58 1003.5
20260504235402 78 250 1.0 1.0 0.00 0.00 0.00 57 1003.2
20260504234857 78 250 5.0 7.0 0.00 0.00 0.00 56 1003.3
20260504234355 79 250 1.0 2.0 0.00 0.00 0.00 55 1003.6
20260504233852 79 250 1.0 2.0 0.00 0.00 0.00 56 1003.6
20260504233348 80 250 2.0 3.0 0.00 0.00 0.00 54 1003.5
20260504232844 81 250 1.0 1.0 0.00 0.00 0.00 52 1003.4
20260504232342 82 250 4.0 6.0 0.00 0.00 0.00 50 1003.3
20260504231838 82 250 3.0 3.0 0.00 0.00 0.00 51 1003.4
20260504231335 82 250 2.0 3.0 0.00 0.00 0.00 50 1003.3
20260504230831 82 250 2.0 2.0 0.00 0.00 0.00 50 1003.5
20260504230329 81 250 1.0 2.0 0.00 0.00 0.00 51 1003.4
20260504225827 80 250 1.0 3.0 0.00 0.00 0.00 53 1003.4
20260504225323 80 250 0.0 0.0 0.00 0.00 0.00 53 1003.4
20260504224821 80 250 0.0 1.0 0.00 0.00 0.00 52 1003.3
20260504224318 80 250 3.0 3.0 0.00 0.00 0.00 50 1003.3
20260504223815 81 250 3.0 3.0 0.00 0.00 0.00 49 1003.2
20260504223310 81 250 2.0 2.0 0.00 0.00 0.00 50 1003.3
20260504222807 81 250 3.0 5.0 0.00 0.00 0.00 49 1003.2
20260504222305 81 250 3.0 3.0 0.00 0.00 0.00 50 1003.3
20260504221802 81 250 8.0 10.0 0.00 0.00 0.00 49 1003.3
20260504221258 82 250 3.0 5.0 0.00 0.00 0.00 50 1003.3
20260504220755 81 250 4.0 10.0 0.00 0.00 0.00 49 1003.5
20260504220252 81 250 6.0 9.0 0.00 0.00 0.00 49 1003.4
20260504215749 81 250 2.0 2.0 0.00 0.00 0.00 49 1003.2
20260504215246 81 250 4.0 5.0 0.00 0.00 0.00 48 1003.5
20260504214742 81 250 2.0 3.0 0.00 0.00 0.00 50 1003.6
20260504214238 81 250 0.0 1.0 0.00 0.00 0.00 51 1003.6
20260504213735 80 250 0.0 1.0 0.00 0.00 0.00 50 1003.6
20260504213232 81 250 5.0 7.0 0.00 0.00 0.00 49 1003.7
20260504212729 81 250 8.0 13.0 0.00 0.00 0.00 48 1003.9
20260504212225 82 250 2.0 6.0 0.00 0.00 0.00 50 1003.9
20260504211723 82 250 6.0 13.0 0.00 0.00 0.00 49 1004.0
20260504211219 82 250 5.0 7.0 0.00 0.00 0.00 47 1004.0
20260504210717 82 250 3.0 3.0 0.00 0.00 0.00 48 1004.1
20260504210214 83 250 4.0 6.0 0.00 0.00 0.00 49 1004.2
20260504205711 82 250 3.0 8.0 0.00 0.00 0.00 50 1004.0
20260504205208 82 250 3.0 5.0 0.00 0.00 0.00 48 1004.1
20260504204706 82 250 4.0 5.0 0.00 0.00 0.00 48 1004.2
20260504204205 82 250 5.0 9.0 0.00 0.00 0.00 49 1004.0
20260504203703 81 250 3.0 6.0 0.00 0.00 0.00 48 1004.1
20260504203201 81 250 2.0 2.0 0.00 0.00 0.00 49 1004.1
20260504202700 82 250 9.0 13.0 0.00 0.00 0.00 47 1004.1
20260504202158 82 250 7.0 13.0 0.00 0.00 0.00 47 1004.2
20260504201654 82 250 4.0 6.0 0.00 0.00 0.00 48 1004.5
20260504201152 82 250 5.0 10.0 0.00 0.00 0.00 47 1004.2
20260504200649 81 250 1.0 3.0 0.00 0.00 0.00 49 1004.3
20260504200146 81 250 3.0 5.0 0.00 0.00 0.00 48 1004.3
20260504195641 80 250 5.0 11.0 0.00 0.00 0.00 47 1004.4
20260504195138 81 250 5.0 8.0 0.00 0.00 0.00 47 1004.5
20260504194635 82 250 3.0 6.0 0.00 0.00 0.00 48 1004.7
20260504194131 82 250 7.0 10.0 0.00 0.00 0.00 44 1004.7
20260504193627 82 250 6.0 8.0 0.00 0.00 0.00 46 1004.6
20260504193126 82 250 2.0 3.0 0.00 0.00 0.00 45 1004.8
20260504192623 81 250 5.0 7.0 0.00 0.00 0.00 48 1004.7
20260504192121 81 250 7.0 8.0 0.00 0.00 0.00 47 1004.6
20260504191619 81 250 5.0 6.0 0.00 0.00 0.00 47 1004.8
20260504191115 81 250 4.0 5.0 0.00 0.00 0.00 47 1004.6
20260504190612 81 250 5.0 7.0 0.00 0.00 0.00 48 1004.8
20260504190108 81 250 3.0 3.0 0.00 0.00 0.00 49 1005.1
20260504185605 80 250 1.0 2.0 0.00 0.00 0.00 47 1004.9
20260504185101 80 250 3.0 5.0 0.00 0.00 0.00 47 1004.9
20260504184557 80 250 8.0 11.0 0.00 0.00 0.00 46 1004.9
20260504184052 80 250 4.0 8.0 0.00 0.00 0.00 45 1004.9
20260504183549 80 250 5.0 6.0 0.00 0.00 0.00 48 1004.7
20260504183048 80 250 4.0 8.0 0.00 0.00 0.00 48 1005.1
20260504182544 80 250 2.0 3.0 0.00 0.00 0.00 49 1004.8
20260504182042 78 250 3.0 3.0 0.00 0.00 0.00 51 1005.0
20260504181539 79 250 3.0 3.0 0.00 0.00 0.00 51 1005.2
20260504181037 79 250 5.0 6.0 0.00 0.00 0.00 48 1005.0
20260504180536 79 250 4.0 5.0 0.00 0.00 0.00 47 1005.0
20260504180034 79 250 3.0 5.0 0.00 0.00 0.00 50 1005.0
20260504175531 79 250 5.0 6.0 0.00 0.00 0.00 50 1005.2
20260504175028 78 250 4.0 6.0 0.00 0.00 0.00 48 1005.4
20260504174526 78 250 4.0 6.0 0.00 0.00 0.00 51 1005.3
20260504174022 78 250 5.0 8.0 0.00 0.00 0.00 49 1005.3
20260504173519 78 250 7.0 10.0 0.00 0.00 0.00 49 1005.3
20260504173017 77 250 5.0 8.0 0.00 0.00 0.00 50 1005.3
20260504172513 77 250 4.0 5.0 0.00 0.00 0.00 51 1005.4
20260504172009 77 250 4.0 6.0 0.00 0.00 0.00 50 1005.4
20260504171506 76 250 8.0 10.0 0.00 0.00 0.00 49 1005.5
20260504171003 77 250 5.0 6.0 0.00 0.00 0.00 51 1005.5
20260504170459 76 250 4.0 5.0 0.00 0.00 0.00 52 1005.5
20260504160419 73 250 4.0 5.0 0.00 0.00 0.00 54 1005.6
20260504150843 68 250 5.0 6.0 0.00 0.00 0.00 58 1005.9
20260504150339 68 250 3.0 3.0 0.00 0.00 0.00 58 1006.1
20260504141310 69 250 7.0 10.0 0.00 0.00 0.00 56 1005.9
20260504140806 68 250 2.0 3.0 0.00 0.00 0.00 57 1005.9
20260504140302 68 250 3.0 3.0 0.00 0.00 0.00 56 1006.1
20260504130731 64 250 3.0 3.0 0.00 0.00 0.00 60 1006.4
20260504130226 64 250 1.0 1.0 0.00 0.00 0.00 61 1006.2
20260504120150 64 250 4.0 7.0 0.00 0.00 0.00 58 1006.5
20260504110618 64 250 4.0 6.0 0.00 0.00 0.00 55 1005.9
20260504110114 64 250 4.0 11.0 0.00 0.00 0.00 55 1006.0
20260504100539 65 250 0.0 1.0 0.00 0.00 0.00 55 1007.1
20260504081933 69 250 1.0 1.0 0.00 0.00 0.00 47 1007.7
20260504081430 69 250 2.0 3.0 0.00 0.00 0.00 46 1007.5
20260504080926 69 250 5.0 7.0 0.00 0.00 0.00 46 1007.9
20260504080423 69 250 2.0 2.0 0.00 0.00 0.00 46 1007.7
20260504070350 70 250 4.0 6.0 0.00 0.00 0.00 45 1008.2
20260504050732 68 250 0.0 0.0 0.00 0.00 0.00 53 1008.7
20260504050229 68 250 3.0 5.0 0.00 0.00 0.00 54 1009.0
20260504045726 68 250 3.0 3.0 0.00 0.00 0.00 54 1008.9
20260504045221 68 250 0.0 1.0 0.00 0.00 0.00 55 1008.9
20260504044719 68 250 1.0 2.0 0.00 0.00 0.00 56 1008.7
20260504044217 68 250 1.0 2.0 0.00 0.00 0.00 56 1008.9
20260504043714 68 250 0.0 1.0 0.00 0.00 0.00 56 1008.7
20260504043210 68 250 0.0 1.0 0.00 0.00 0.00 57 1009.0
20260504042708 68 250 1.0 2.0 0.00 0.00 0.00 56 1009.0
20260504042204 69 250 2.0 3.0 0.00 0.00 0.00 56 1009.1
20260504041700 69 250 3.0 5.0 0.00 0.00 0.00 56 1009.1
20260504041156 69 250 1.0 1.0 0.00 0.00 0.00 56 1009.2
20260504040653 70 250 1.0 2.0 0.00 0.00 0.00 54 1009.2
20260504040150 70 250 2.0 2.0 0.00 0.00 0.00 54 1009.1
20260504035647 70 250 4.0 8.0 0.00 0.00 0.00 55 1009.1
20260504035144 70 250 4.0 7.0 0.00 0.00 0.00 55 1009.1
20260504034641 70 250 1.0 1.0 0.00 0.00 0.00 55 1009.2
20260504034138 70 250 4.0 8.0 0.00 0.00 0.00 55 1009.4
20260504033636 70 250 0.0 2.0 0.00 0.00 0.00 55 1009.4
20260504033133 71 250 5.0 7.0 0.00 0.00 0.00 55 1009.2
20260504032629 71 250 3.0 5.0 0.00 0.00 0.00 54 1009.3
20260504032127 71 250 7.0 9.0 0.00 0.00 0.00 55 1009.3
20260504031624 71 250 4.0 5.0 0.00 0.00 0.00 55 1009.7
20260504031120 71 250 4.0 8.0 0.00 0.00 0.00 54 1009.6
20260504030617 72 250 1.0 1.0 0.00 0.00 0.00 54 1009.5
20260504030114 72 250 1.0 1.0 0.00 0.00 0.00 55 1009.5
20260504025610 72 250 2.0 3.0 0.00 0.00 0.00 54 1009.2